Regional Weather Roundup
Issued by NWS

Home | Current Version | Previous Version | Text Only | Print | Product List | Glossary Off
Versions: 1 2 3 4 5 6 7 8 9 10 11 12 13 14 15 16 17 18 19 20 21 22 23 24 25 26 27

000
ASUS45 KCYS 010410
RWRWY

WYOMING REGIONAL WEATHER ROUNDUP
NATIONAL WEATHER SERVICE CHEYENNE WY
1000 PM MDT TUE MAY 31 2016

NOTE:  "FAIR" INDICATES FEW OR NO CLOUDS BELOW 12,000 FEET
WITH NO SIGNIFICANT WEATHER AND/OR OBSTRUCTIONS TO VISIBILITY.

WYZ001-010500-
YELLOWSTONE NATIONAL PARK

CITY           SKY/WX    TMP DP  RH WIND       PRES   REMARKS
LK YELLOWSTONE   N/A     40  29  64 CALM      30.26S
W YELLOWSTONE  NOT AVBL

$$
WYZ002>013-054>058-071-098>099-010500-
NORTHERN WYOMING

CITY           SKY/WX    TMP DP  RH WIND       PRES   REMARKS
JACKSON        NOT AVBL
CODY           FAIR      50  34  53 NW5       30.18R
GREYBULL       FAIR      58  33  39 NW9       30.12R
WORLAND        FAIR      56  32  40 CALM      30.13R
SHERIDAN       FAIR      47  40  76 NW8       30.15R
BUFFALO        FAIR      48  38  68 NW8       30.18R
GILLETTE       FAIR      43  39  86 NW7       30.15R
HULETT         FAIR      48  43  81 NW6       30.14R
NEWCASTLE      FAIR      46  36  66 NW7       30.15R

$$
WYZ014>020-022>026-101>103-010500-
CENTRAL WYOMING

CITY           SKY/WX    TMP DP  RH WIND       PRES   REMARKS
BIG PINEY      FAIR      46  30  53 N13       30.18R
PINEDALE       FAIR      45  32  61 NW9       30.19R
DUBOIS         FAIR      48  30  49 SE7       30.21R
LANDER         FAIR      53  33  46 W7        30.16R
RIVERTON       MOCLDY    56  29  35 NE10      30.17R
CASPER         FAIR      46  37  71 E8        30.20R
DOUGLAS          N/A    N/A N/A N/A MISG      30.20R

$$
WYZ021-027>030-104>119-010500-
SOUTHERN WYOMING

CITY           SKY/WX    TMP DP  RH WIND       PRES   REMARKS
EVANSTON       FAIR      53  35  50 N6        30.20R
KEMMERER         N/A     50  32  50 NW8       30.20R
FORT BRIDGER   PTCLDY    54  36  50 NW6       30.22R
ROCK SPRINGS   CLOUDY    56  33  42 NE15G22   30.15R
DIXON          FAIR      51  36  55 NE6       30.15R
RAWLINS        FAIR      47  25  42 NE8       30.18R
SARATOGA       FAIR      43  32  65 CALM      30.18S
LARAMIE        FAIR      43  29  57 SE8       30.22R
CHEYENNE       FAIR      49  33  54 NE7       30.20R
TORRINGTON     FAIR      49  39  68 S7        30.15R
PINE BLUFFS    FAIR      45  37  76 NE3       30.19R

$$




USA.gov is the U.S. government's official web portal to all federal, state and local government web resources and services.